Tracking 27405 objects as of 2-Jun-2023
HD Live streaming from Space Station
objects crossing your sky now

FENGYUN 1C DEB

Track FENGYUN 1C DEB now!
10-day predictions


NORAD ID: 30010
Int'l Code: 1999-025MK
Perigee: 766.2 km
Apogee: 872.7 km
Inclination: 99.0 °
Period: 101.1 minutes
Semi major axis: 7190 km
RCS: 0.1109 m2 (medium)
Launch date: May 10, 1999
Source: People's Republic of China (PRC)
Launch site: Taiyaun Space Center, China (TSC)

Note: This is SATELLITE DEBRIS
Your satellite tracking list
Your tracking list is empty




NASA's NSSDC Master Catalog

Two Line Element Set (TLE):
1 30010U 99025MK  23152.42356178  .00000209  00000-0  10860-3 0  9997
2 30010  99.0150 305.0478 0074033 348.3608  72.8520 14.23870745850879
Source of the keplerian elements: AFSPC